Location: Unspecified
(44.7972°N, 0.0000°E)
Time: 05:11:03
(UTC+00:00)

KAZEOSAT 1 - Visible Passes

Search period start: 04 April 2026 00:00
Search period end: 14 April 2026 00:00
Orbit: 751 x 753 km, 98.3° (Epoch: 29 March)

Date Brightness Start Highest point End Pass type
(mag) Time Alt. Az. Time Alt. Az. Time Alt. Az.
4 Apr ? 21:35:00 46° NNE 21:35:00 46° NNE 21:38:40 10° N visible
4 Apr ? 23:14:53 13° WNW 23:14:53 13° WNW 23:16:00 10° NW visible
5 Apr ? 20:53:43 28° NE 20:53:43 28° NE 20:57:30 10° N visible
5 Apr ? 22:33:37 28° NW 22:33:37 28° NW 22:36:30 10° NNW visible
6 Apr ? 20:12:27 13° ENE 20:13:02 14° ENE 20:15:26 10° NNE visible
6 Apr ? 21:52:21 51° NNW 21:52:21 51° NNW 21:56:04 10° NNW visible
7 Apr ? 21:11:05 38° NE 21:11:05 38° NE 21:15:08 10° N visible
7 Apr ? 22:50:59 22° WNW 22:50:59 22° WNW 22:53:31 10° NW visible
8 Apr ? 20:29:49 19° ENE 20:30:09 19° ENE 20:33:34 10° NNE visible
8 Apr ? 22:09:43 45° NW 22:09:43 45° NW 22:13:24 10° NNW visible
9 Apr ? 21:28:27 52° NE 21:28:27 52° NE 21:32:39 10° N visible
9 Apr ? 23:08:21 16° WNW 23:08:21 16° WNW 23:10:18 10° NW visible
10 Apr ? 20:47:11 26° ENE 20:47:19 26° ENE 20:51:25 10° N visible
10 Apr ? 22:27:05 36° WNW 22:27:05 36° WNW 22:30:36 10° NNW visible
11 Apr ? 20:05:55 11° ENE 20:07:09 12° ENE 20:09:02 10° NE visible
11 Apr ? 21:45:49 64° N 21:45:49 64° N 21:50:06 10° NNW visible
11 Apr ? 23:25:44 12° WNW 23:25:44 12° WNW 23:26:34 10° WNW visible
12 Apr ? 21:04:33 36° ENE 21:04:33 36° ENE 21:09:05 10° N visible
12 Apr ? 22:44:27 27° WNW 22:44:27 27° WNW 22:47:40 10° NW visible
13 Apr ? 20:23:17 16° ENE 20:24:15 17° ENE 20:27:23 10° NNE visible
13 Apr ? 22:03:12 59° NW 22:03:12 59° NW 22:07:26 10° NNW visible
